User: anonymous   Login
Location: Codford Saint Peter
(51.1597°N, 2.0531°W)
Time: 14:38:55
(UTC+00:00)
Language:

Cosmos 2297 Rocket - Orbit

View from above orbital plane
View from above orbital plane
View from above satellite
View from above satellite

Ground track
Ground track

The orbit data is extracted from the following two-line orbital elements,

1 23405U 94077B   21206.72029007  .00000136  00000-0  94489-4 0  9997
2 23405  70.9842 302.5314 0004110 237.0916 122.9812 14.15244017377391
Epoch (UTC): 25 July 2021 17:17:13
Eccentricity: 0.0004110
inclination: 70.9842°
perigee height: 838 km
apogee height: 844 km
right ascension of ascending node: 302.5314°
argument of perigee: 237.0916°
revolutions per day: 14.15244017
mean anomaly at epoch: 122.9812°
orbit number at epoch: 37739

The dashed part of the orbit path shows where the satellite is in the earth's shadow,  

DLR